H1 CPF 2 NER 2022 9 7 9 250 01 glonass134 H2 1407501 9134 40315 2022 9 7 0 0 0 2022 9 10 23 45 0 900 1 1 0 0 0 1 H9 10 0 59829 0.00000 0 -6858628.230 12686716.049 -20997848.412 10 0 59829 900.00000 0 -7726240.263 10171160.954 -22045067.371 10 0 59829 1800.00000 0 -8808733.104 7629044.986 -22662656.092 10 0 59829 2700.00000 0 -10088908.309 5126245.196 -22838851.375 10 0 59829 3600.00000 0 -11538181.122 2724975.537 -22570515.585 10 0 59829 4500.00000 0 -13117659.690 481411.636 -21863175.252 10 0 59829 5400.00000 0 -14779672.814 -1556415.429 -20730889.687 10 0 59829 6300.00000 0 -16469680.935 -3350370.312 -19195953.970 10 0 59829 7200.00000 0 -18128489.256 -4873538.946 -17288443.770 10 0 59829 8100.00000 0 -19694669.713 -6111076.214 -15045612.328 10 0 59829 9000.00000 0 -21107090.298 -7060543.679 -12511152.489 10 0 59829 9900.00000 0 -22307446.120 -7731726.620 -9734339.004 10 0 59829 10800.00000 0 -23242687.160 -8145941.280 -6769068.280 10 0 59829 11700.00000 0 -23867242.247 -8334864.162 -3672814.310 10 0 59829 12600.00000 0 -24144947.633 -8338934.692 -505520.926 10 0 59829 13500.00000 0 -24050600.969 -8205399.875 2671548.690 10 0 59829 14400.00000 0 -23571077.124 -7986083.944 5796983.819 10 0 59829 15300.00000 0 -22705960.341 -7734976.888 8810397.656 10 0 59829 16200.00000 0 -21467667.089 -7505742.826 11653577.058 10 0 59829 17100.00000 0 -19881054.659 -7349252.201 14271589.900 10 0 59829 18000.00000 0 -17982531.490 -7311240.470 16613830.046 10 0 59829 18900.00000 0 -15818705.273 -7430190.721 18634981.348 10 0 59829 19800.00000 0 -13444623.518 -7735528.404 20295883.474 10 0 59829 20700.00000 0 -10921677.776 -8246203.714 21564283.902 10 0 59829 21600.00000 0 -8315256.249 -8969721.458 22415462.427 10 0 59829 22500.00000 0 -5692239.782 -9901660.147 22832716.432 10 0 59829 23400.00000 0 -3118442.961 -11025702.237 22807697.308 10 0 59829 24300.00000 0 -656104.422 -12314176.620 22340590.827 10 0 59829 25200.00000 0 1638470.940 -13729093.445 21440136.634 10 0 59829 26100.00000 0 3717020.809 -15223630.885 20123484.724 10 0 59829 27000.00000 0 5541097.935 -16744014.404 18415889.606 10 0 59829 27900.00000 0 7083432.189 -18231712.255 16350245.770 10 0 59829 28800.00000 0 8328824.519 -19625856.848 13966471.255 10 0 59829 29700.00000 0 9274534.409 -20865791.328 11310749.299 10 0 59829 30600.00000 0 9930143.490 -21893634.371 8434641.195 10 0 59829 31500.00000 0 10316900.050 -22656754.347 5394086.716 10 0 59829 32400.00000 0 10466571.508 -23110047.005 2248311.257 10 0 59829 33300.00000 0 10419853.276 -23217918.369 -941338.569 10 0 59829 34200.00000 0 10224401.866 -22955886.612 -4112606.988 10 0 59829 35100.00000 0 9932576.870 -22311732.739 -7203563.436 10 0 59829 36000.00000 0 9598989.343 -21286149.192 -10153833.093 10 0 59829 36900.00000 0 9277962.895 -19892857.254 -12905797.175 10 0 59829 37800.00000 0 9021017.643 -18158187.245 -15405737.380 10 0 59829 38700.00000 0 8874486.227 -16120138.807 -17604900.178 10 0 59829 39600.00000 0 8877365.064 -13826961.254 -19460458.568 10 0 59829 40500.00000 0 9059493.528 -11335314.554 -20936351.639 10 0 59829 41400.00000 0 9440139.137 -8708089.307 -22003985.215 10 0 59829 42300.00000 0 10027048.853 -6011978.509 -22642780.189 10 0 59829 43200.00000 0 10816006.225 -3314903.743 -22840558.730 10 0 59829 44100.00000 0 11790912.166 -683404.088 -22593762.162 10 0 59829 45000.00000 0 12924384.600 1819903.150 -21907497.859 10 0 59829 45900.00000 0 14178850.286 4138684.634 -20795416.039 10 0 59829 46800.00000 0 15508081.367 6224979.057 -19279420.648 10 0 59829 47700.00000 0 16859110.733 8040926.121 -17389221.657 10 0 59829 48600.00000 0 18174444.791 9560067.061 -15161738.959 10 0 59829 49500.00000 0 19394480.206 10768165.656 -12640370.638 10 0 59829 50400.00000 0 20460023.113 11663518.699 -9874140.748 10 0 59829 51300.00000 0 21314805.576 12256746.303 -6916743.661 10 0 59829 52200.00000 0 21907894.592 12570073.874 -3825503.677 10 0 59829 53100.00000 0 22195893.768 12636138.331 -660269.977 10 0 59829 54000.00000 0 22144846.758 12496370.637 2517732.208 10 0 59829 54900.00000 0 21731763.973 12199023.740 5647072.802 10 0 59829 55800.00000 0 20945709.815 11796929.246 8667288.782 10 0 59829 56700.00000 0 19788405.690 11345076.942 11520035.454 10 0 59829 57600.00000 0 18274323.869 10898118.185 14150196.324 10 0 59829 58500.00000 0 16430267.975 10507897.006 16506931.582 10 0 59829 59400.00000 0 14294456.644 10221111.497 18544646.512 10 0 59829 60300.00000 0 11915146.944 10077202.578 20223862.528 10 0 59829 61200.00000 0 9348852.772 10106558.019 21511975.131 10 0 59829 62100.00000 0 6658229.848 10329106.810 22383884.964 10 0 59829 63000.00000 0 3909712.379 10753363.241 22822490.158 10 0 59829 63900.00000 0 1170996.988 11375961.802 22819030.222 10 0 59829 64800.00000 0 -1491524.166 12181704.199 22373274.154 10 0 59829 65700.00000 0 -4015276.512 13144118.742 21493547.829 10 0 59829 66600.00000 0 -6343859.398 14226511.297 20196598.406 10 0 59829 67500.00000 0 -8429148.431 15383466.391 18507296.300 10 0 59829 68400.00000 0 -10233056.396 16562737.956 16458178.207 10 0 59829 69300.00000 0 -11728878.730 17707452.302 14088837.823 10 0 59829 70200.00000 0 -12902166.433 18758531.946 11445174.092 10 0 59829 71100.00000 0 -13751088.680 19657238.744 8578509.919 10 0 59829 72000.00000 0 -14286268.740 20347728.634 5544597.601 10 0 59829 72900.00000 0 -14530099.257 20779508.888 2402529.976 10 0 59829 73800.00000 0 -14515565.346 20909692.092 -786421.111 10 0 59829 74700.00000 0 -14284625.383 20704949.063 -3960015.160 10 0 59829 75600.00000 0 -13886218.882 20143075.495 -7056276.948 10 0 59829 76500.00000 0 -13373987.304 19214103.498 -10014727.891 10 0 59829 77400.00000 0 -12803806.416 17920908.866 -12777588.400 10 0 59829 78300.00000 0 -12231237.108 16279286.810 -15290925.620 10 0 59829 79200.00000 0 -11709005.124 14317491.996 -17505722.116 10 0 59829 80100.00000 0 -11284618.696 12075262.080 -19378843.077 10 0 59829 81000.00000 0 -10998226.707 9602366.222 -20873882.185 10 0 59829 81900.00000 0 -10880809.193 6956740.346 -21961869.320 10 0 59829 82800.00000 0 -10952777.109 4202288.505 -22621826.515 10 0 59829 83700.00000 0 -11223040.216 1406443.450 -22841162.172 10 0 59829 84600.00000 0 -11688581.499 -1362410.852 -22615897.160 10 0 59829 85500.00000 0 -12334554.605 -4037546.700 -21950719.976 10 0 59830 0.00000 0 -13134898.333 -6556421.499 -20858871.812 10 0 59830 900.00000 0 -14053440.929 -8863024.863 -19361864.885 10 0 59830 1800.00000 0 -15045444.779 -10909944.458 -17489042.800 10 0 59830 2700.00000 0 -16059526.525 -12660071.366 -15276991.026 10 0 59830 3600.00000 0 -17039869.748 -14087873.266 -12768811.518 10 0 59830 4500.00000 0 -17928637.025 -15180186.812 -10013276.002 10 0 59830 5400.00000 0 -18668479.915 -15936499.126 -7063874.970 10 0 59830 6300.00000 0 -19205041.859 -16368709.758 -3977780.998 10 0 59830 7200.00000 0 -19489349.697 -16500385.777 -814746.394 10 0 59830 8100.00000 0 -19479994.488 -16365543.451 2364043.951 10 0 59830 9000.00000 0 -19145011.326 -16007009.156 5497143.166 10 0 59830 9900.00000 0 -18463380.378 -15474429.115 8524014.730 10 0 59830 10800.00000 0 -17426087.121 -14822011.648 11386185.218 10 0 59830 11700.00000 0 -16036697.722 -14106096.249 14028356.641 10 0 59830 12600.00000 0 -14311425.374 -13382650.546 16399458.352 10 0 59830 13500.00000 0 -12278683.973 -12704798.972 18453619.760 10 0 59830 14400.00000 0 -9978146.262 -12120485.506 20151046.494 10 0 59830 15300.00000 0 -7459343.643 -11670367.360 21458784.214 10 0 59830 16200.00000 0 -4779863.343 -11386027.139 22351356.169 10 0 59830 17100.00000 0 -2003214.999 -11288578.155 22811262.573 10 0 59830 18000.00000 0 803547.593 -11387721.749 22829331.949 10 0 59830 18900.00000 0 3572353.640 -11681297.162 22404916.995 10 0 59830 19800.00000 0 6236688.940 -12155344.511 21545929.886 10 0 59830 20700.00000 0 8734110.757 -12784680.323 20268714.637 10 0 59830 21600.00000 0 11008600.682 -13533963.848 18597756.899 10 0 59830 22500.00000 0 13012657.996 -14359211.695 16565234.558 10 0 59830 23400.00000 0 14709045.944 -15209699.161 14210415.604 10 0 59830 24300.00000 0 16072117.225 -16030169.702 11578912.956 10 0 59830 25200.00000 0 17088662.048 -16763260.211 8721809.050 10 0 59830 26100.00000 0 17758241.831 -17352039.638 5694666.294 10 0 59830 27000.00000 0 18092993.344 -17742552.774 2556442.254 10 0 59830 27900.00000 0 18116910.769 -17886259.885 -631668.913 10 0 59830 28800.00000 0 17864635.645 -17742266.649 -3807445.042 10 0 59830 29700.00000 0 17379806.241 -17279247.332 -6908869.348 10 0 59830 30600.00000 0 16713037.273 -16476977.045 -9875362.523 10 0 59830 31500.00000 0 15919617.105 -15327405.737 -12648987.097 10 0 59830 32400.00000 0 15057022.074 -13835226.435 -15175598.397 10 0 59830 33300.00000 0 14182355.450 -12017912.251 -17405917.602 10 0 59830 34200.00000 0 13349821.674 -9905219.865 -19296504.321 10 0 59830 35100.00000 0 12608344.617 -7538180.270 -20810608.754 10 0 59830 36000.00000 0 11999431.863 -4967619.645 -21918886.403 10 0 59830 36900.00000 0 11555375.895 -2252273.299 -22599961.614 10 0 59830 37800.00000 0 11297867.947 543427.353 -22840829.788 10 0 59830 38700.00000 0 11237082.106 3351801.396 -22637091.696 10 0 59830 39600.00000 0 11371266.769 6104495.757 -21993016.924 10 0 59830 40500.00000 0 11686858.658 8735085.747 -20921436.990 10 0 59830 41400.00000 0 12159112.415 11181590.980 -19443472.016 10 0 59830 42300.00000 0 12753217.033 13388802.922 -17588097.985 10 0 59830 43200.00000 0 13425850.110 15310329.049 -15391564.520 10 0 59830 44100.00000 0 14127102.892 16910270.792 -12896675.699 10 0 59830 45000.00000 0 14802693.930 18164468.050 -10151948.859 10 0 59830 45900.00000 0 15396377.645 19061261.413 -7210668.234 10 0 59830 46800.00000 0 15852446.432 19601743.253 -4129852.019 10 0 59830 47700.00000 0 16118221.514 19799489.956 -969152.782 10 0 59830 48600.00000 0 16146428.642 19679788.911 2210287.958 10 0 59830 49500.00000 0 15897359.833 19278394.441 5347009.611 10 0 59830 50400.00000 0 15340731.410 18639865.924 8380405.201 10 0 59830 51300.00000 0 14457161.266 17815558.197 11251875.498 10 0 59830 52200.00000 0 13239203.918 16861348.273 13905943.761 10 0 59830 53100.00000 0 11691900.051 15835192.826 16291311.001 10 0 59830 54000.00000 0 9832816.947 14794617.623 18361832.968 10 0 59830 54900.00000 0 7691576.777 13794242.627 20077401.412 10 0 59830 55800.00000 0 5308890.544 12883445.030 21404713.712 10 0 59830 56700.00000 0 2735135.391 12104256.845 22317916.911 10 0 59830 57600.00000 0 28531.509 11489584.276 22799114.082 10 0 59830 58500.00000 0 -2747008.590 11061823.168 22838723.090 10 0 59830 59400.00000 0 -5524272.170 10831928.890 22435680.184 10 0 59830 60300.00000 0 -8235283.200 10798980.617 21597483.192 10 0 59830 61200.00000 0 -10813880.874 10950259.795 20340071.830 10 0 59830 62100.00000 0 -13198234.159 11261841.449 18687545.369 10 0 59830 63000.00000 0 -15333188.590 11699675.497 16671720.839 10 0 59830 63900.00000 0 -17172347.450 12221114.600 14331538.140 10 0 59830 64800.00000 0 -18679799.887 12776825.731 11712321.546 10 0 59830 65700.00000 0 -19831422.523 13313005.872 8864910.281 10 0 59830 66600.00000 0 -20615698.509 13773808.473 5844674.082 10 0 59830 67500.00000 0 -21034018.187 14103877.475 2710432.515 10 0 59830 68400.00000 0 -21100447.472 14250880.252 -476700.585 10 0 59830 69300.00000 0 -20840972.944 14167930.079 -3654523.894 10 0 59830 70200.00000 0 -20292255.363 13815792.923 -6760981.438 10 0 59830 71100.00000 0 -19499944.877 13164782.257 -9735395.409 10 0 59830 72000.00000 0 -18516630.344 12196258.918 -12519672.535 10 0 59830 72900.00000 0 -17399511.321 10903670.130 -15059458.202 10 0 59830 73800.00000 0 -16207893.254 9293081.827 -17305213.862 10 0 59830 74700.00000 0 -15000613.961 7383180.642 -19213194.953 10 0 59830 75600.00000 0 -13833512.128 5204744.848 -20746309.315 10 0 59830 76500.00000 0 -12757046.198 2799606.567 -21874838.903 10 0 59830 77400.00000 0 -11814164.993 219149.414 -22577010.914 10 0 59830 78300.00000 0 -11038519.913 -2477594.646 -22839407.989 10 0 59830 79200.00000 0 -10453093.276 -5226168.706 -22657210.764 10 0 59830 80100.00000 0 -10069299.126 -7959140.892 -22034269.591 10 0 59830 81000.00000 0 -9886592.267 -10608678.277 -20983005.841 10 0 59830 81900.00000 0 -9892599.522 -13109137.582 -19524146.494 10 0 59830 82800.00000 0 -10063765.094 -15399565.314 -17686298.903 10 0 59830 83700.00000 0 -10366480.359 -17426004.563 -15505375.549 10 0 59830 84600.00000 0 -10758648.286 -19143514.255 -13023881.165 10 0 59830 85500.00000 0 -11191614.910 -20517818.989 -10290077.088 10 0 59831 0.00000 0 -11612385.291 -21526523.283 -7357039.862 10 0 59831 900.00000 0 -11966030.310 -22159842.839 -4281630.968 10 0 59831 1800.00000 0 -12198182.397 -22420823.640 -1123401.598 10 0 59831 2700.00000 0 -12257516.382 -22325043.995 2056552.088 10 0 59831 3600.00000 0 -12098111.311 -21899812.472 5196757.898 10 0 59831 4500.00000 0 -11681595.112 -21182897.254 8236540.642 10 0 59831 5400.00000 0 -10978982.907 -20220840.675 11117177.646 10 0 59831 6300.00000 0 -9972132.423 -19066929.494 13783015.853 10 0 59831 7200.00000 0 -8654755.772 -17778905.229 16182530.390 10 0 59831 8100.00000 0 -7032944.884 -16416509.263 18269305.741 10 0 59831 9000.00000 0 -5125187.573 -15038963.894 20002922.013 10 0 59831 9900.00000 0 -2961871.934 -13702493.096 21349730.309 10 0 59831 10800.00000 0 -584297.354 -12457985.108 22283503.151 10 0 59831 11700.00000 0 1956769.516 -11348893.239 22785947.799 10 0 59831 12600.00000 0 4602936.843 -10409461.899 22847072.407 10 0 59831 13500.00000 0 7290354.418 -9663351.752 22465397.315 10 0 59831 14400.00000 0 9952118.192 -9122721.869 21648006.162 10 0 59831 15300.00000 0 12520815.133 -8787808.269 20410434.155 10 0 59831 16200.00000 0 14931104.591 -8647017.937 18776393.599 10 0 59831 17100.00000 0 17122229.955 -8677535.995 16777339.740 10 0 59831 18000.00000 0 19040356.221 -8846422.321 14451883.098 10 0 59831 18900.00000 0 20640635.531 -9112152.924 11845057.653 10 0 59831 19800.00000 0 21888913.246 -9426542.194 9007457.392 10 0 59831 20700.00000 0 22763001.492 -9736965.294 5994257.004 10 0 59831 21600.00000 0 23253465.085 -9988786.419 2864135.354 10 0 59831 22500.00000 0 23363885.139 -10127888.984 -321877.013 10 0 59831 23400.00000 0 23110587.990 -10103198.742 -3501602.741 10 0 59831 24300.00000 0 22521850.199 -9869090.440 -6612949.858 10 0 59831 25200.00000 0 21636613.159 -9387573.245 -9595145.202 10 0 59831 26100.00000 0 20502762.332 -8630159.492 -12389942.667 10 0 59831 27000.00000 0 19175045.136 -7579334.954 -14942780.466 10 0 59831 27900.00000 0 17712717.256 -6229566.165 -17203862.800 10 0 59831 28800.00000 0 16177018.808 -4587800.635 -19129143.109 10 0 59831 29700.00000 0 14628588.857 -2673437.829 -20681188.718 10 0 59831 30600.00000 0 13124928.923 -517771.794 -21829909.532 10 0 59831 31500.00000 0 11718023.508 1837070.842 -22553136.731 10 0 59831 32400.00000 0 10452218.109 4339652.318 -22837040.950 10 0 59831 33300.00000 0 9362443.513 6931140.065 -22676383.048 10 0 59831 34200.00000 0 8472859.782 9547536.830 -22074594.116 10 0 59831 35100.00000 0 7795974.877 12122130.852 -21043684.961 10 0 59831 36000.00000 0 7332272.427 14588063.590 -19603988.625 10 0 59831 36900.00000 0 7070361.428 16880908.143 -17783742.670 10 0 59831 37800.00000 0 6987638.666 18941151.702 -15618520.915 10 0 59831 38700.00000 0 7051433.213 20716479.982 -13150526.888 10 0 59831 39600.00000 0 7220582.539 22163770.202 -10427763.723 10 0 59831 40500.00000 0 7447372.026 23250711.782 -7503097.216 10 0 59831 41400.00000 0 7679755.049 23956989.611 -4433230.401 10 0 59831 42300.00000 0 7863759.573 24274982.927 -1277609.565 10 0 59831 43200.00000 0 7945979.960 24209952.978 1902717.652 10 0 59831 44100.00000 0 7876049.556 23779713.573 5046270.665 10 0 59831 45000.00000 0 7608990.833 23013799.763 8092309.246 10 0 59831 45900.00000 0 7107345.144 21952170.261 10981990.326 10 0 59831 46800.00000 0 6342993.401 20643498.015 13659487.370 10 0 59831 47700.00000 0 5298591.728 19143119.970 16073052.203 10 0 59831 48600.00000 0 3968561.911 17510730.600 18176000.314 10 0 59831 49500.00000 0 2359594.475 15807914.117 19927602.091 10 0 59831 50400.00000 0 490642.065 14095616.656 21293863.912 10 0 59831 51300.00000 0 -1607598.632 12431662.163 22248184.919 10 0 59831 52200.00000 0 -3893697.509 10868414.008 22771877.256 10 0 59831 53100.00000 0 -6316955.068 9450678.658 22854539.569 10 0 59831 54000.00000 0 -8819262.223 8213938.094 22494275.989 10 0 59831 54900.00000 0 -11337281.765 7182984.580 21697755.121 10 0 59831 55800.00000 0 -13804863.516 6371015.254 20480106.281 10 0 59831 56700.00000 0 -16155595.083 5779225.315 18864652.904 10 0 59831 57600.00000 0 -18325383.555 5396918.114 16882486.075 10 0 59831 58500.00000 0 -20254961.219 5202129.051 14571884.167 10 0 59831 59400.00000 0 -21892210.545 5162738.394 11977587.810 10 0 59831 60300.00000 0 -23194210.375 5238027.289 9149942.523 10 0 59831 61200.00000 0 -24128915.991 5380611.916 6143924.674 10 0 59831 62100.00000 0 -24676400.758 5538673.947 3018069.196 10 0 59831 63000.00000 0 -24829605.199 5658392.116 -166679.737 10 0 59831 63900.00000 0 -24594560.216 5686470.324 -3348171.638 10 0 59831 64800.00000 0 -23990073.811 5572652.903 -6464281.208 10 0 59831 65700.00000 0 -23046893.877 5272117.745 -9454142.366 10 0 59831 66600.00000 0 -21806382.526 4747642.996 -12259358.362 10 0 59831 67500.00000 0 -20318758.720 3971452.706 -14825162.138 10 0 59831 68400.00000 0 -18640984.779 2926660.810 -17101502.231 10 0 59831 69300.00000 0 -16834387.709 1608250.432 -19044031.308 10 0 59831 70200.00000 0 -14962117.526 23545.816 -20614976.988 10 0 59831 71100.00000 0 -13086551.299 -1807843.709 -21783877.512 10 0 59831 72000.00000 0 -11266753.472 -3854605.349 -22528167.982 10 0 59831 72900.00000 0 -9556099.843 -6074805.175 -22833606.551 10 0 59831 73800.00000 0 -8000164.785 -8417425.017 -22694533.438 10 0 59831 74700.00000 0 -6634959.479 -10824288.528 -22113959.271 10 0 59831 75600.00000 0 -5485593.219 -13232295.102 -21103482.817 10 0 59831 76500.00000 0 -4565411.489 -15575867.724 -19683041.479 10 0 59831 77400.00000 0 -3875644.085 -17789512.325 -17880501.170 10 0 59831 78300.00000 0 -3405574.840 -19810382.245 -15731095.085 10 0 59831 79200.00000 0 -3133222.701 -21580741.678 -13276723.532 10 0 59831 80100.00000 0 -3026502.654 -23050226.661 -10565129.441 10 0 59831 81000.00000 0 -3044815.259 -24177811.095 -7648966.148 10 0 59831 81900.00000 0 -3140996.083 -24933397.828 -4584775.807 10 0 59831 82800.00000 0 -3263541.844 -25298970.522 -1431898.197 10 0 59831 83700.00000 0 -3359019.034 -25269260.372 1748669.369 10 0 59831 84600.00000 0 -3374553.691 -24851901.711 4895439.711 10 0 59831 85500.00000 0 -3260298.102 -24067071.456 7947609.360 10 0 59832 0.00000 0 -2971771.450 -22946628.558 10846216.409 10 0 59832 900.00000 0 -2471976.679 -21532789.003 13535263.203 10 0 59832 1800.00000 0 -1733205.801 -19876393.001 15962779.795 10 0 59832 2700.00000 0 -738457.650 -18034833.698 18081814.424 10 0 59832 3600.00000 0 517591.191 -16069733.809 19851329.367 10 0 59832 4500.00000 0 2028103.963 -14044464.723 21236987.691 10 0 59832 5400.00000 0 3774111.541 -12021609.576 22211816.328 10 0 59832 6300.00000 0 5725051.649 -10060474.031 22756733.183 10 0 59832 7200.00000 0 7839799.705 -8214746.845 22860927.966 10 0 59832 8100.00000 0 10068151.563 -6530406.388 22522088.848 10 0 59832 9000.00000 0 12352699.632 -5043959.653 21746469.335 10 0 59832 9900.00000 0 14631027.263 -3781087.151 20548792.477 10 0 59832 10800.00000 0 16838132.648 -2755750.654 18951992.185 10 0 59832 11700.00000 0 18908983.154 -1969802.046 16986794.432 10 0 59832 12600.00000 0 20781094.594 -1413110.857 14691144.215 10 0 59832 13500.00000 0 22397027.910 -1064206.394 12109487.280 10 0 59832 14400.00000 0 23706698.185 -891408.558 9291918.854 10 0 59832 15300.00000 0 24669397.778 -854400.435 6293214.829 10 0 59832 16200.00000 0 25255446.785 -906176.411 3171763.780 10 0 59832 17100.00000 0 25447399.272 -995282.870 -11579.181 10 0 59832 18000.00000 0 25240752.408 -1068255.360 -3194693.302 10 0 59832 18900.00000 0 24644126.793 -1072146.991 -6315422.918 10 0 59832 19800.00000 0 23678909.200 -957038.413 -9312811.966 10 0 59832 20700.00000 0 22378372.239 -678420.170 -12128315.872 10 0 59832 21600.00000 0 20786308.317 -199343.635 -14706964.918 10 0 59832 22500.00000 0 18955236.377 507753.229 -16998454.333 10 0 59832 23400.00000 0 16944258.417 1459624.723 -18958138.068 10 0 59832 24300.00000 0 14816657.760 2661262.558 -20547905.816 10 0 59832 25200.00000 0 12637341.736 4105448.573 -21736925.612 10 0 59832 26100.00000 0 10470237.754 5772834.099 -22502237.643 10 0 59832 27000.00000 0 8375752.898 7632542.350 -22829188.415 10 0 59832 27900.00000 0 6408403.782 9643267.841 -22711697.994 10 0 59832 28800.00000 0 4614715.388 11754825.675 -22152356.667 10 0 59832 29700.00000 0 3031475.419 13910084.795 -21162350.881 10 0 59832 30600.00000 0 1684414.999 16047203.487 -19761221.724 10 0 59832 31500.00000 0 587368.235 18102073.021 -17976462.370 10 0 59832 32400.00000 0 -258057.422 20010867.251 -15842963.908 10 0 59832 33300.00000 0 -862289.563 21712592.067 -13402321.563 10 0 59832 34200.00000 0 -1247089.195 23151529.039 -10702015.837 10 0 59832 35100.00000 0 -1444371.509 24279472.546 -7794485.082 10 0 59832 36000.00000 0 -1494600.990 25057668.634 -4736107.764 10 0 59832 36900.00000 0 -1444830.056 25458376.425 -1586114.148 10 0 59832 37800.00000 0 -1346464.813 25465988.779 1594551.920 10 0 59832 38700.00000 0 -1252852.334 25077667.118 4744399.852 10 0 59832 39600.00000 0 -1216790.758 24303465.340 7802566.103 10 0 59832 40500.00000 0 -1288066.386 23165938.601 10709973.485 10 0 59832 41400.00000 0 -1511120.468 21699253.705 13410455.047 10 0 59832 42300.00000 0 -1922942.915 19947837.978 15851822.256 10 0 59832 43200.00000 0 -2551280.714 17964622.149 17986858.455 10 0 59832 44100.00000 0 -3413236.045 15808948.980 19774219.864 10 0 59832 45000.00000 0 -4514313.177 13544232.979 21179227.931 10 0 59832 45900.00000 0 -5847955.150 11235466.442 22174538.693 10 0 59832 46800.00000 0 -7395591.377 8946673.419 22740676.696 10 0 59832 47700.00000 0 -9127196.582 6738415.527 22866423.127 10 0 59832 48600.00000 0 -11002340.611 4665451.669 22549050.085 10 0 59832 49500.00000 0 -12971688.514 2774647.820 21794395.330 10 0 59832 50400.00000 0 -14978891.375 1103223.417 20616774.425 10 0 59832 51300.00000 0 -16962791.873 -322592.600 19038729.965 10 0 59832 52200.00000 0 -18859854.816 -1488439.459 17090620.502 10 0 59832 53100.00000 0 -20606722.538 -2392198.245 14810054.862 10 0 59832 54000.00000 0 -22142788.957 -3043844.866 12241180.740 10 0 59832 54900.00000 0 -23412684.189 -3464787.344 9433839.621 10 0 59832 55800.00000 0 -24368564.312 -3686714.453 6442603.334 10 0 59832 56700.00000 0 -24972108.322 -3750003.901 3325710.454 10 0 59832 57600.00000 0 -25196136.018 -3701757.520 143923.470 10 0 59832 58500.00000 0 -25025776.290 -3593547.523 -3040670.026 10 0 59832 59400.00000 0 -24459134.366 -3478970.929 -6165887.202 10 0 59832 60300.00000 0 -23507428.054 -3411117.997 -9170684.968 10 0 59832 61200.00000 0 -22194586.100 -3440064.636 -11996373.581 10 0 59832 62100.00000 0 -20556325.161 -3610497.821 -14587782.985 10 0 59832 63000.00000 0 -18638744.599 -3959577.382 -16894357.021 10 0 59832 63900.00000 0 -16496499.265 -4515126.977 -18871152.395 10 0 59832 64800.00000 0 -14190628.508 -5294232.606 -20479721.798 10 0 59832 65700.00000 0 -11786134.196 -6302309.040 -21688863.423 10 0 59832 66600.00000 0 -9349410.934 -7532673.984 -22475222.305 10 0 59832 67500.00000 0 -6945637.259 -8966647.785 -22823732.475 10 0 59832 68400.00000 0 -4636237.590 -10574173.788 -22727892.496 10 0 59832 69300.00000 0 -2476520.916 -12314932.230 -22189870.497 10 0 59832 70200.00000 0 -513593.921 -14139899.738 -21220438.433 10 0 59832 71100.00000 0 1215366.114 -15993287.948 -19838738.629 10 0 59832 72000.00000 0 2684408.895 -17814779.073 -18071888.915 10 0 59832 72900.00000 0 3879628.021 -19541964.318 -15954435.569 10 0 59832 73800.00000 0 4799466.428 -21112883.026 -13527666.011 10 0 59832 74700.00000 0 5454500.934 -22468556.707 -10838795.644 10 0 59832 75600.00000 0 5866718.202 -23555412.836 -7940045.250 10 0 59832 76500.00000 0 6068315.329 -24327498.332 -4887627.148 10 0 59832 77400.00000 0 6100077.637 -24748391.615 -1740659.783 10 0 59832 78300.00000 0 6009403.452 -24792734.967 1439968.613 10 0 59832 79200.00000 0 5848059.775 -24447324.692 4592766.032 10 0 59832 80100.00000 0 5669763.398 -23711714.846 7656810.670 10 0 59832 81000.00000 0 5527688.873 -22598310.303 10572911.461 10 0 59832 81900.00000 0 5472007.363 -21131945.676 13284734.173 10 0 59832 82800.00000 0 5547558.856 -19348967.519 15739872.737 10 0 59832 83700.00000 0 5791754.667 -17295857.310 17890846.719 10 0 59832 84600.00000 0 6232797.642 -15027451.120 19696007.187 10 0 59832 85500.00000 0 6888294.521 -12604828.274 21120334.636 99